Location: Bieg
(49.3499°N, 10.3835°E)
Time: 18:03:34
(UTC+00:00)

Okean 2 - Pass Details

Date: 16 August 2024
Orbit: 535 x 551 km, 82.5° (Epoch: 06 September)

Event Time Altitude Azimuth Distance (km) Brightness Sun altitude
Rises 23:36:17 0° 357° (N) 2,700 8.1 -27.2°
Reaches altitude 10° 23:38:37 10° 8° (N) 1,804 6.9 -27.2°
Enters shadow 23:41:35 30° 54° (NE) 977 4.9 -27.2°
